Weather History for Lincoln, IL

Change the Weather History Date:

Monday, November 14, 2011

  Actual Average (KSPI) Record (KSPI)
Temperature  
Mean Temperature 61 °F 44 °F  
Max Temperature 75 °F 53 °F 77 °F (1960)
Min Temperature 47 °F 35 °F 12 °F (1940)
Degree Days  
Heating Degree Days 4 21  
Month to date heating degree days 254  
Since 1 July heating degree days 664  
Cooling Degree Days 0 0  
Month to date cooling degree days 0  
Year to date cooling degree days 1121  
Growing Degree Days 11 (Base 50)    
Moisture  
Dew Point 45 °F    
Average Humidity 65    
Maximum Humidity 82    
Minimum Humidity 41    
Precipitation  
Precipitation 0.00 in 0.12 in 0.91 in (1993)
Month to date precipitation 1.47  
Year to date precipitation 33.17  
Snow  
Snow 0.00 in 0.00 in 0.70 in (1992)
Month to date snowfall 0.1  
Since 1 July snowfall 0.1  
Since 1 September snowfall 0.1  
Snow Depth -    
Sea Level Pressure  
Sea Level Pressure 29.63 in    
Wind  
Wind Speed 4 mph (West)    
Max Wind Speed 17 mph    
Max Gust Speed 32 mph    
Visibility 10 miles    
Events      
T = Trace of Precipitation, MM = Missing Value Source: NWS Daily Summary

Daily Weather History Graph

Daily Weather History Graph

Search for Another Location

Airport:

Trip Planner

Search our weather history database for the weather conditions in past years. The results will help you decide how hot, cold, wet, or windy it might be!

Date:

Astronomy

Nov. 14, 2011 Rise Set
Actual Time 6:41 AM CST 4:41 PM CST
Civil Twilight 6:12 AM CST 5:10 PM CST
Nautical Twilight 5:39 AM CST 5:43 PM CST
Astronomical Twilight 5:07 AM CST 6:15 PM CST
Moon 7:48 PM CST (11/14) 10:00 AM CST (11/14)
Length of Visible Light 10h 58m
Length of Day
10h 00m
Waning Gibbous, 86% of the Moon is Illuminated
Nov 14
Waning Gibbous
Nov 18
Last Quarter
Nov 25
New
Dec 2
First Quarter
Dec 10
Full

Hourly Weather History & Observations

Time (CST) Temp. Dew Point Humidity Pressure Visibility Wind Dir Wind Speed Gust Speed Precip Events Conditions
12:15 AM 53.2 °F 39.7 °F 60% 29.67 in 10.0 mi Calm Calm - N/A   Clear
12:35 AM 53.1 °F 39.2 °F 59% 29.66 in 10.0 mi Calm Calm - N/A   Clear
12:55 AM 52.7 °F 38.5 °F 58% 29.66 in 10.0 mi NNW 3.5 mph - N/A   Clear
1:15 AM 50.4 °F 38.3 °F 63% 29.66 in 10.0 mi North 3.5 mph - N/A   Clear
1:35 AM 50.2 °F 38.5 °F 64% 29.65 in 10.0 mi Calm Calm - N/A   Scattered Clouds
1:55 AM 47.7 °F 38.8 °F 71% 29.66 in 10.0 mi Calm Calm - N/A   Scattered Clouds
2:15 AM 50.9 °F 39.2 °F 64% 29.67 in 10.0 mi NW 4.6 mph - N/A   Mostly Cloudy
2:55 AM 50.7 °F 39.4 °F 65% 29.64 in 10.0 mi North 6.9 mph - N/A   Mostly Cloudy
3:15 AM 50.5 °F 39.6 °F 66% 29.64 in 10.0 mi North 5.8 mph - N/A   Mostly Cloudy
3:35 AM 49.6 °F 39.2 °F 67% 29.63 in 10.0 mi NNE 4.6 mph - N/A   Overcast
3:55 AM 49.3 °F 39.6 °F 69% 29.63 in 10.0 mi NNE 4.6 mph - N/A   Overcast
4:15 AM 49.5 °F 38.8 °F 67% 29.63 in 10.0 mi ENE 4.6 mph - N/A   Overcast
4:35 AM 48.7 °F 39.6 °F 71% 29.63 in 10.0 mi ESE 4.6 mph - N/A   Mostly Cloudy
4:55 AM 49.3 °F 40.1 °F 71% 29.63 in 10.0 mi ENE 3.5 mph - N/A   Overcast
5:15 AM 49.1 °F 40.8 °F 73% 29.63 in 10.0 mi East 3.5 mph - N/A   Overcast
5:55 AM 50.0 °F 41.0 °F 71% 29.61 in 10.0 mi ESE 4.6 mph - N/A   Overcast
6:15 AM 50.7 °F 39.6 °F 66% 29.61 in 10.0 mi ESE 6.9 mph - N/A   Overcast
6:55 AM 51.6 °F 40.6 °F 66% 29.60 in 10.0 mi SE 4.6 mph - N/A   Overcast
7:15 AM 51.8 °F 41.0 °F 67% 29.59 in 10.0 mi ESE 5.8 mph - N/A   Overcast
7:55 AM 53.2 °F 39.7 °F 60% 29.58 in 10.0 mi ESE 6.9 mph - N/A   Overcast
8:15 AM 53.6 °F 39.2 °F 58% 29.58 in 10.0 mi East 8.1 mph - N/A   Overcast
8:55 AM 54.7 °F 43.7 °F 66% 29.56 in 10.0 mi East 5.8 mph - N/A   Overcast
9:15 AM 56.5 °F 46.6 °F 69% 29.55 in 10.0 mi SE 6.9 mph - N/A   Overcast
9:55 AM 62.6 °F 56.7 °F 81% 29.54 in 10.0 mi South 9.2 mph - N/A   Scattered Clouds
10:15 AM 66.0 °F 59.2 °F 79% 29.53 in 10.0 mi SSW 9.2 mph - N/A   Clear
10:55 AM 73.6 °F 61.2 °F 65% 29.52 in 10.0 mi SW 12.7 mph 24.2 mph N/A   Scattered Clouds
11:15 AM 74.8 °F 57.2 °F 54% 29.52 in 10.0 mi WSW 16.1 mph 26.5 mph N/A   Scattered Clouds
11:35 AM 75.2 °F 56.5 °F 52% 29.52 in 10.0 mi WSW 10.4 mph 21.9 mph N/A   Scattered Clouds
11:55 AM 74.7 °F 53.1 °F 47% 29.52 in 10.0 mi WSW 11.5 mph 27.6 mph N/A   Mostly Cloudy
12:15 PM 73.4 °F 50.2 °F 44% 29.53 in 10.0 mi WSW 16.1 mph 32.2 mph N/A   Scattered Clouds
12:35 PM 73.9 °F 48.7 °F 41% 29.53 in 10.0 mi WSW 17.3 mph 32.2 mph N/A   Mostly Cloudy
12:55 PM 72.1 °F 47.7 °F 42% 29.54 in 10.0 mi West 15.0 mph 25.3 mph N/A   Mostly Cloudy
1:15 PM 71.8 °F 46.6 °F 41% 29.54 in 10.0 mi West 11.5 mph 23.0 mph N/A   Scattered Clouds
1:55 PM 66.7 °F 49.3 °F 53% 29.56 in 10.0 mi WNW 10.4 mph 16.1 mph N/A   Clear
2:15 PM 66.0 °F 49.8 °F 56% 29.58 in 10.0 mi NW 8.1 mph - N/A   Clear
2:55 PM 63.0 °F 47.8 °F 58% 29.60 in 10.0 mi NW 4.6 mph - N/A   Clear
3:15 PM 62.6 °F 47.3 °F 57% 29.61 in 10.0 mi NW 6.9 mph - N/A   Clear
3:55 PM 61.2 °F 47.5 °F 61% 29.63 in 10.0 mi NW 4.6 mph - N/A   Clear
4:15 PM 60.8 °F 47.3 °F 61% 29.64 in 10.0 mi WNW 5.8 mph - N/A   Clear
4:55 PM 58.6 °F 46.2 °F 63% 29.66 in 10.0 mi WNW 4.6 mph - N/A   Clear
5:15 PM 57.6 °F 45.9 °F 65% 29.66 in 10.0 mi West 3.5 mph - N/A   Clear
5:55 PM 54.7 °F 45.1 °F 70% 29.68 in 10.0 mi Calm Calm - N/A   Clear
6:15 PM 55.0 °F 45.0 °F 69% 29.69 in 10.0 mi Calm Calm - N/A   Clear
6:55 PM 50.0 °F 43.7 °F 79% 29.69 in 10.0 mi Calm Calm - N/A   Clear
7:15 PM 52.7 °F 45.3 °F 76% 29.68 in 10.0 mi Calm Calm - N/A   Clear
8:15 PM 50.2 °F 44.6 °F 81% 29.69 in 10.0 mi Calm Calm - N/A   Clear
8:55 PM 50.0 °F 44.8 °F 82% 29.72 in 10.0 mi Calm Calm - N/A   Clear
9:15 PM 51.4 °F 45.5 °F 80% 29.73 in 7.0 mi SSW 3.5 mph - N/A   Clear
9:55 PM 52.0 °F 45.0 °F 77% 29.75 in 10.0 mi Calm Calm - N/A   Clear
10:15 PM 52.7 °F 44.8 °F 74% 29.76 in 10.0 mi Calm Calm - N/A   Clear
10:55 PM 52.7 °F 44.2 °F 73% 29.76 in 10.0 mi SW 3.5 mph - N/A   Clear
11:15 PM 53.1 °F 43.7 °F 71% 29.77 in 10.0 mi WSW 3.5 mph - N/A   Clear
11:35 PM 54.0 °F 43.0 °F 66% 29.77 in 10.0 mi WSW 4.6 mph - N/A   Clear
11:55 PM 53.6 °F 42.6 °F 66% 29.77 in 10.0 mi WSW 4.6 mph - N/A   Clear